Home   Weather   Bristol   Past weeks

Flag for USA Past Weather in Bristol, Tennessee, USA — Yesterday and Last 2 Weeks

Now
61 °F

Fog.


Feels Like: 61 °F
Forecast: 55 / 85 °F
Wind: 3 mph from Southeast

Location: Abingdon-Southwest Abingdon

Current Time: Apr 27, 2017 at 10:45:57 pm

Latest Report: Apr 27, 2017 at 10:15 pm


Visibility: 0 mi

Pressure: 29.92 "Hg (28.17 "Hg at 510m altitude)

Humidity: 100%

Dew Point: 61 °F

Location of BristolLocation

Past Weather in Bristol — Graph

°F

Bristol Temperature Yesterday

Maximum temperature yesterday: 82 °F (at 6:15 pm)
Minimum temperature yesterday: 49 °F (at 6:35 am)
Average temperature yesterday: 66 °F

High & Low Weather Summary for the Past Weeks

 TemperatureHumidityPressure
High82 °F (Apr 26, 6:15 pm)100% (Apr 20, 7:15 am)30.37 "Hg (Apr 20, 7:15 am)
Low47 °F (Apr 24, 12:15 am)15% (Apr 14, 6:15 pm)29.73 "Hg (Apr 25, 3:35 am)
Average63 °F77%30.05 "Hg
* Reported Apr 12 9:35 pm — Apr 27 9:35 pm, Bristol, Weather by CustomWeather, © 2017

Note: Actual official high and low records may vary slightly from our data, if they occured in-between our weather recording intervals... More about our weather records

Advertising

Bristol Weather History for the Previous 24 Hours

Scroll right to see more
 ConditionsComfort  
Time TempWeatherWind HumidityBarometerVisibility
9:35 pm
Thu, Apr 27
62 °FFog.No wind100%29.91 "Hg0 mi
9:15 pm64 °FFog.No wind100%29.90 "Hg1 mi
8:55 pm64 °FFog.No wind99%29.89 "Hg2 mi
8:15 pm65 °FLow clouds.No wind98%29.89 "Hg7 mi
7:55 pm65 °FMostly cloudy.No wind97%29.88 "Hg10 mi
7:35 pm65 °FMostly cloudy.3 mph98%29.88 "Hg10 mi
7:15 pm64 °FMostly cloudy.No wind97%29.88 "Hg10 mi
6:55 pm65 °FCloudy.6 mph96%29.87 "Hg10 mi
6:35 pm64 °FLight rain. Cloudy.5 mph96%29.86 "Hg7 mi
6:15 pm64 °FThundershowers. Cloudy.6 mph95%29.86 "Hg5 mi
5:55 pm65 °FThunderstorms. Cloudy.10 mph88%29.85 "HgN/A
5:35 pm67 °FThundershowers. Cloudy.13 mph81%29.83 "Hg10 mi
5:15 pm68 °FCloudy.10 mph82%29.83 "Hg10 mi
4:55 pm72 °FCloudy.18 mph67%29.83 "Hg10 mi
4:35 pm72 °FMostly cloudy.9 mph65%29.79 "Hg10 mi
4:15 pm74 °FMostly cloudy.12 mph61%29.80 "Hg10 mi
3:55 pm74 °FMostly cloudy.8 mph58%29.80 "Hg10 mi
2:55 pm77 °FMostly cloudy.14 mph52%29.80 "Hg10 mi
2:35 pm74 °FMostly cloudy.9 mph55%29.81 "Hg10 mi
2:15 pm73 °FOvercast.13 mph55%29.81 "Hg10 mi
1:55 pm74 °FOvercast.10 mph53%29.80 "Hg10 mi
1:35 pm74 °FOvercast.10 mph52%29.80 "Hg10 mi
1:15 pm75 °FCloudy.13 mph49%29.80 "Hg10 mi
12:55 pm76 °FOvercast.10 mph50%29.80 "Hg10 mi
12:35 pm75 °FMostly cloudy.9 mph46%29.81 "Hg10 mi
11:55 am75 °FSunny.5 mph46%29.81 "Hg10 mi
11:35 am75 °FSunny.5 mph47%29.81 "Hg10 mi
11:15 am73 °FSunny.6 mph51%29.81 "Hg10 mi
10:55 am72 °FSunny.3 mph54%29.81 "Hg10 mi
10:35 am68 °FSunny.No wind67%29.80 "Hg10 mi
10:15 am66 °FScattered clouds.5 mph74%29.83 "Hg10 mi
9:55 am65 °FScattered clouds.No wind75%29.85 "Hg10 mi
9:35 am65 °FScattered clouds.No wind72%29.85 "Hg10 mi
9:15 am64 °FSunny.5 mph81%29.88 "Hg10 mi
8:55 am64 °FSunny.No wind79%29.83 "Hg10 mi
8:35 am64 °FSunny.No wind79%29.84 "Hg10 mi
8:15 am64 °FSunny.No wind78%29.85 "Hg10 mi
7:55 am62 °FSunny.3 mph83%29.85 "Hg10 mi
7:35 am60 °FSunny.No wind82%29.82 "Hg10 mi
7:15 am59 °FSunny.No wind82%29.81 "Hg10 mi
6:55 am59 °FSunny.No wind85%29.80 "Hg10 mi
6:35 am59 °FClear.No wind84%29.79 "Hg10 mi
5:55 am62 °FClear.5 mph79%29.77 "Hg10 mi
5:35 am60 °FClear.6 mph82%29.76 "Hg10 mi
5:15 am61 °FClear.No wind80%29.77 "Hg10 mi
4:55 am58 °FClear.No wind86%29.77 "Hg10 mi
4:35 am60 °FClear.5 mph81%29.76 "Hg10 mi
4:15 am61 °FClear.No wind80%29.78 "Hg10 mi
3:55 am60 °FClear.No wind83%29.80 "Hg10 mi
3:15 am64 °FClear.No wind71%29.81 "Hg10 mi
2:55 am66 °FClear.3 mph64%29.82 "Hg10 mi
2:35 am69 °FClear.6 mph57%29.81 "Hg10 mi
2:15 am69 °FClear.7 mph57%29.80 "Hg10 mi
1:55 am69 °FClear.8 mph59%29.80 "Hg10 mi
1:35 am64 °FClear.3 mph72%29.80 "Hg10 mi
1:15 am66 °FClear.No wind68%29.80 "Hg10 mi
12:55 am67 °FClear.3 mph65%29.80 "Hg10 mi
12:35 am66 °FClear.No wind66%29.80 "Hg10 mi
12:15 am67 °FClear.No wind64%29.80 "Hg10 mi
11:55 pm
Wed, Apr 26
68 °FClear.5 mph62%29.80 "Hg10 mi
11:35 pm70 °FClear.5 mph58%29.81 "Hg10 mi
10:55 pm72 °FClear.7 mph58%29.80 "Hg10 mi
10:35 pm72 °FClear.5 mph57%29.80 "Hg10 mi
10:15 pm73 °FClear.7 mph58%29.79 "Hg10 mi
Weather by CustomWeather, © 2017

See weather overviewHow to use our weather pages